sim
Sign-in with your pilot id or email,
or register
Callsign
Passwort

Schedule Details

Flight Number: RYR4081
Departure: Liverpool John Lennon Airport (EGGP) at 14:35
Arrival: Fuerteventura Airport (GCFV) at 18:55
Route: Ryanair Passenger Schedule. Enter filed route here before submitting Pirep.

Weather Information
Getting current METAR information for EGGP 192250Z 09007KT CAVOK 13/07 Q1032
Getting current METAR information for GCFV 192230Z AUTO 35014KT 9999 FEW028 18/12 Q1018

Schedule Frequency

Route Map